GOES 14

Last updated on Sat Sep 05 2026 00:02:48 GMT+0000 (Coordinated Universal Time)

1 35491U 09033A 26247.61387339 -.00000198 00000+0 00000+0 0 9995 2 35491 1.8878 81.9450 0002172 91.8885 121.3858 1.00073048 7383
UTC large
Height (km)
Speed (km/s)
/
Latitude / Longitude
Inclination (degrees)
Orbital Period (minutes)
Azimuth
Elevation
Range (km)
Doppler Factor

Next 0 passes for location: London (51.5072 / 0.1276)

No passes found over London.
GOES 14